COSMOS 1275 DEB, 27733

Orbit data source: Space-Track

COSMOS 1275 DEB, 27733 is space debris in LEO originally from a launch on Thu, 04 Jun 1981 UTC launched from the Plesetsk Missile And Space Complex (PKMTR). Debris objects in space refer to the collection of defunct objects orbiting the Earth. Examples of debris include non-operational satellites, rocket bodies, and fragments generated from explosions, collisions, or faulty payload assembly.

Loading next visibility...
Identifier
27733, 1981-053MN
Orbit
LEO
Country
Flag of CISCIS
Related business
Manufacturer
Unknown
Mission
Spacecraft
Bus & Motor
Unknown
Mass
Unknown
Launch date (UTC)
1981-06-04 (45 years ago)
Launch vehicle
Unknown
Launch site
Plesetsk Missile And Space Complex (PKMTR)
Object type
Payload
Rocket body
Debris
Shape & HBR
Unknown shape, 0.1 m
Radar Cross Section
Small (<0.1 m²)

Expand to show TLE details & history
Last TLE update: 2 days ago

TLE from 2 days ago
0 COSMOS 1275 DEB
1 27733U 81053MN  26036.00390942  .00004342  00000-0  19728-2 0  9995
2 27733  83.1100 286.2918 0031062  38.9976 321.3438 14.21363704348591
Epoch: 2026-02-05T00:05Z
TLE epoch observation values (Epoch: 2026-02-05T00:05:37.773Z)
Latitude
-0.00003°
Longitude
149.72204°
Altitude
806.275 km
Speed
7.459 km/s
True Right ascension
19h 05m 10s
True Declination
0° 00' 00"
Sunlit
Object was in daylight at epoch
Visualization orbit readout
Latitude
Unknown
Longitude
Unknown
Altitude
Unknown
Speed
Unknown
Apparent Right ascension
Unknown
Apparent Declination
Unknown
Sunlit
N/A
Visualization observer readout
Local Sidereal Time
00:12:55
Azimuth
Unknown
Elevation
Unknown
Doppler factor
Unknown
Orbital elements
Apogee altitude
840.175 km
Perigee altitude
795.471 km
Semi-major axis
7,195.96 km
Eccentricity
0.00311
Inclination
83.11°
RAAN
286.2918°
Arg. of periapsis
38.9976°
True anomaly
321.12079°
Mean anomaly
321.3438°
Eccentric anomaly
321.23236°
Mean motion
3.55558 °/min
Orbital period
101.25 mins
BSTAR
0.0019728
Loading maneuver chart data...
Computing Atmospheric mass density...
Loading historical data...
Loading historical data...
Loading historical data...
Loading historical data...
Loading historical data...
Loading historical data...
Loading historical data...

Documentation

Showing up to 5 results
|